Le nostre stazioni meteo in Italia

Pubblicità
Il mio iltempo24.it
Olbia/Costa Smeralda, Italia (16531): Temperatura & dewpoint: 15.04.2019 09:00:00 - 21.04.2019 09:00:00 (CEST)Olbia/Costa Smeralda, Italia (16531): velocità del vento: 15.04.2019 09:00:00 - 21.04.2019 09:00:00 (CEST)Olbia/Costa Smeralda, Italia (16531): direzione del vento: 15.04.2019 09:00:00 - 21.04.2019 09:00:00 (CEST)Olbia/Costa Smeralda, Italia (16531): reduced air pressure: 15.04.2019 09:00:00 - 21.04.2019 09:00:00 (CEST)Olbia/Costa Smeralda, Italia (16531): visibility: 15.04.2019 09:00:00 - 21.04.2019 09:00:00 (CEST)Olbia/Costa Smeralda, Italia (16531): precipitazioni: 15.04.2019 09:00:00 - 21.04.2019 09:00:00 (CEST)
Data & Tempo tt [°C] td [°C] ff [km/h] ff [kn] dd ppp [hPa] vv [km] rr [mm]
21.04.2019 09:00:00 16,0 12,0 21 11 E - 10 -
21.04.2019 08:00:00 15,7 12,4 21 11 E 1016,9 10 -
21.04.2019 07:00:00 15,0 12,0 15 8 E - 10 -
21.04.2019 06:00:00 15,0 12,0 18 10 E - 10 -
21.04.2019 05:00:00 15,3 11,1 16 9 E 1017,6 10 0,0
21.04.2019 04:00:00 15,0 12,0 11 6 E - 10 -
21.04.2019 03:00:00 15,0 13,0 11 6 E - 10 -
21.04.2019 02:00:00 14,8 12,7 13 7 E 1019,9 10 -
21.04.2019 01:00:00 15,0 13,0 13 7 E - 10 -
21.04.2019 00:00:00 15,0 13,0 13 7 E - 10 -
20.04.2019 23:00:00 15,2 13,3 11 6 ENE 1020,0 10 0,0
20.04.2019 22:00:00 16,0 13,0 15 8 E - 10 -
20.04.2019 21:00:00 15,0 13,0 11 6 E - 10 -
20.04.2019 20:00:00 15,7 12,4 16 9 E 1019,6 10 -
20.04.2019 19:00:00 16,0 14,0 18 10 E - 10 -
20.04.2019 18:00:00 17,0 12,0 21 11 E - 10 -
20.04.2019 17:00:00 17,5 11,8 18 10 E 1021,6 10 0,0
20.04.2019 16:00:00 18,0 12,0 22 12 E - 10 -
20.04.2019 15:00:00 17,0 12,0 13 7 E - 10 -
20.04.2019 14:00:00 16,9 12,9 18 10 E 1022,6 10 -
20.04.2019 13:00:00 18,0 13,0 22 12 E - 10 -
20.04.2019 12:00:00 17,0 11,0 21 11 E - 10 -
20.04.2019 11:00:00 18,0 11,9 18 10 E 1023,9 10 0,0
20.04.2019 10:00:00 17,0 13,0 11 6 E - 10 -
20.04.2019 09:00:00 16,0 15,0 11 6 E - 10 -
20.04.2019 08:00:00 10,7 10,7 2 1 - 1024,4 8 -
20.04.2019 07:00:00 9,0 9,0 4 2 OSO - 5 -
20.04.2019 06:00:00 8,0 8,0 2 1 - - 4,0 -
20.04.2019 05:00:00 8,1 7,9 2 1 - 1024,6 4,0 0,0
20.04.2019 04:00:00 8,0 8,0 4 2 - - 4,0 -
20.04.2019 03:00:00 9,0 9,0 2 1 S - 4,0 -
20.04.2019 02:00:00 10,2 9,9 4 2 SO 1025,3 5 -
20.04.2019 01:00:00 11,0 11,0 4 2 - - 4,0 -
20.04.2019 00:00:00 14,0 13,0 9 5 E - 10 -
19.04.2019 23:00:00 13,8 13,2 11 6 ENE 1026,1 10 0,0
19.04.2019 22:00:00 14,0 13,0 8 4 E - 10 -
19.04.2019 21:00:00 15,0 14,0 9 5 E - 10 -
19.04.2019 20:00:00 15,6 13,4 11 6 E 1025,4 10 -
19.04.2019 19:00:00 17,0 12,0 15 8 E - 10 -
19.04.2019 18:00:00 18,0 11,0 21 11 E - 10 -
19.04.2019 17:00:00 18,8 11,4 18 10 E 1025,2 10 0,0
19.04.2019 16:00:00 20,0 11,0 21 11 E - 10 -
19.04.2019 15:00:00 20,0 11,0 22 12 E - 10 -
19.04.2019 14:00:00 19,3 11,2 22 12 E 1025,6 10 -
19.04.2019 13:00:00 19,0 12,0 22 12 E - 10 -
19.04.2019 12:00:00 19,0 13,0 18 10 E - 10 -
19.04.2019 11:00:00 18,1 13,6 16 9 E 1025,5 10 0,0
19.04.2019 10:00:00 17,0 14,0 13 7 E - 10 -
19.04.2019 09:00:00 13,0 13,0 2 1 - - 10 -
19.04.2019 08:00:00 9,5 9,3 4 2 - 1024,7 10 -
19.04.2019 07:00:00 8,0 7,0 5 3 OSO - 10 -
19.04.2019 06:00:00 8,0 7,0 8 4 O - 10 -
19.04.2019 05:00:00 7,4 7,1 2 1 - 1023,9 10 0,0
19.04.2019 04:00:00 8,0 8,0 2 1 - - 10 -
19.04.2019 03:00:00 8,0 8,0 2 1 - - 10 -
19.04.2019 02:00:00 8,5 8,1 4 2 - 1023,7 10 -
19.04.2019 01:00:00 12,0 11,0 5 3 ENE - 10 -
19.04.2019 00:00:00 12,0 11,0 8 4 ESE - 10 -
18.04.2019 23:00:00 12,4 11,8 8 4 E 1022,7 10 0,0
18.04.2019 22:00:00 13,0 12,0 8 4 E - 10 -
18.04.2019 21:00:00 14,0 12,0 11 6 E - 10 -
18.04.2019 20:00:00 15,1 12,4 13 7 E 1021,5 10 -
18.04.2019 19:00:00 16,0 12,0 16 9 E - 10 -
18.04.2019 18:00:00 17,0 12,0 16 9 E - 10 -
18.04.2019 17:00:00 17,4 11,0 21 11 E 1020,9 10 0,0
18.04.2019 16:00:00 18,0 11,0 21 11 E - 10 -
18.04.2019 15:00:00 19,0 12,0 21 11 E - 10 -
18.04.2019 14:00:00 18,3 10,7 21 11 E 1021,1 10 -
18.04.2019 13:00:00 18,0 12,0 21 11 E - 10 -
18.04.2019 12:00:00 18,0 11,0 18 10 E - 10 -
18.04.2019 11:00:00 17,2 11,1 16 9 E 1021,8 10 0,0
18.04.2019 10:00:00 16,0 14,0 8 4 E - 10 -
18.04.2019 09:00:00 11,0 11,0 0 0 N - 10 -
18.04.2019 08:00:00 8,8 8,7 4 2 - 1021,5 10 -
18.04.2019 07:00:00 6,0 6,0 4 2 SE - 10 -
18.04.2019 06:00:00 7,0 6,0 5 3 SSO - 10 -
18.04.2019 05:00:00 6,7 6,5 4 2 OSO 1021,0 10 0,0
18.04.2019 04:00:00 7,0 6,0 4 2 - - 10 -
18.04.2019 03:00:00 8,0 7,0 2 1 - - 10 -
18.04.2019 02:00:00 7,7 7,3 2 1 - 1021,8 10 -
18.04.2019 01:00:00 9,0 9,0 2 1 - - 10 -
18.04.2019 00:00:00 9,0 9,0 4 2 - - 10 -
17.04.2019 23:00:00 10,3 9,5 4 2 SSO 1021,2 10 0,0
17.04.2019 22:00:00 12,0 11,0 4 2 ENE - 10 -
17.04.2019 21:00:00 14,0 12,0 8 4 ENE - 10 -
17.04.2019 20:00:00 14,9 11,6 11 6 ENE 1019,8 10 -
17.04.2019 19:00:00 17,0 12,0 13 7 E - 10 -
17.04.2019 18:00:00 17,0 12,0 15 8 E - 10 -
17.04.2019 17:00:00 17,9 11,7 16 9 E 1020,0 10 0,0
17.04.2019 16:00:00 18,0 13,0 18 10 NE - 10 -
17.04.2019 15:00:00 18,0 12,0 21 11 NE - 10 -
17.04.2019 14:00:00 17,6 12,3 18 10 ENE 1020,8 10 -
17.04.2019 13:00:00 18,0 12,0 15 8 ENE - 10 -
17.04.2019 12:00:00 17,0 12,0 15 8 ENE - 10 -
17.04.2019 11:00:00 16,8 12,3 8 4 ENE 1021,4 10 0,0
17.04.2019 10:00:00 15,0 13,0 4 2 - - 10 -
17.04.2019 09:00:00 12,0 11,0 4 2 - - 10 -
17.04.2019 08:00:00 9,8 9,4 4 2 S 1020,8 10 -
17.04.2019 07:00:00 8,0 8,0 2 1 - - 10 -
17.04.2019 06:00:00 8,0 8,0 4 2 - - 10 -
17.04.2019 05:00:00 8,6 8,2 5 3 SO 1020,1 10 0,0
17.04.2019 04:00:00 10,0 9,0 4 2 - - 10 -
17.04.2019 03:00:00 10,0 10,0 5 3 SSO - 10 -
17.04.2019 02:00:00 10,7 10,2 4 2 SSO 1020,7 10 -
17.04.2019 01:00:00 11,0 10,0 2 1 - - 10 -
17.04.2019 00:00:00 11,0 10,0 2 1 - - 10 -
16.04.2019 23:00:00 12,8 11,2 2 1 S 1020,6 10 0,0
16.04.2019 22:00:00 14,0 11,0 4 2 - - 10 -
16.04.2019 21:00:00 14,0 11,0 4 2 NE - 10 -
16.04.2019 20:00:00 14,4 11,0 8 4 NE 1019,7 10 -
16.04.2019 19:00:00 15,0 10,0 8 4 E - 10 -
16.04.2019 18:00:00 16,0 10,0 11 6 ENE - 10 -
16.04.2019 17:00:00 16,4 10,1 13 7 E 1019,5 10 0,0
16.04.2019 16:00:00 15,0 10,0 15 8 NE - 10 -
16.04.2019 15:00:00 16,0 9,0 11 6 NE - 10 -
16.04.2019 14:00:00 16,3 9,1 13 7 NE 1020,1 10 -
16.04.2019 13:00:00 17,0 8,0 11 6 ENE - 10 -
16.04.2019 12:00:00 16,0 9,0 8 4 E - 10 -
16.04.2019 11:00:00 15,6 8,8 2 1 - 1020,1 10 0,0
16.04.2019 10:00:00 13,0 10,0 2 1 - - 10 -
16.04.2019 09:00:00 11,0 9,0 4 2 - - 10 -
16.04.2019 08:00:00 9,6 8,7 2 1 - 1019,1 10 -
16.04.2019 07:00:00 9,0 8,0 5 3 OSO - 10 -
16.04.2019 06:00:00 8,0 7,0 4 2 - - 10 -
16.04.2019 05:00:00 8,5 7,5 4 2 - 1018,9 10 0,0
16.04.2019 04:00:00 8,0 7,0 4 2 - - 10 -
16.04.2019 03:00:00 8,0 7,0 2 1 - - 10 -
16.04.2019 02:00:00 8,0 7,3 4 2 - 1019,3 10 -
16.04.2019 01:00:00 8,0 7,0 2 1 - - 10 -
16.04.2019 00:00:00 9,0 8,0 5 3 OSO - 10 -
15.04.2019 23:00:00 8,8 7,4 8 4 SO 1019,7 10 0,0
15.04.2019 22:00:00 10,0 9,0 2 1 - - 10 -
15.04.2019 21:00:00 11,0 9,0 4 2 - - 10 -
15.04.2019 20:00:00 13,1 9,1 4 2 SE 1018,5 10 -
15.04.2019 19:00:00 16,0 9,0 11 6 ENE - 10 -
15.04.2019 18:00:00 16,0 10,0 13 7 ENE - 10 -
15.04.2019 17:00:00 16,8 10,0 16 9 ENE 1017,9 10 0,0
15.04.2019 16:00:00 17,0 10,0 18 10 ENE - 10 -
15.04.2019 15:00:00 17,0 8,0 16 9 NNE - 10 -
15.04.2019 14:00:00 16,6 8,3 21 11 N 1018,1 10 -
15.04.2019 13:00:00 15,0 8,0 26 14 NNE - 10 -
15.04.2019 12:00:00 16,0 9,0 26 14 N - 10 -
15.04.2019 11:00:00 14,7 8,6 22 12 NNE 1017,5 10 0,0
15.04.2019 10:00:00 16,0 9,0 21 11 N - 10 -
15.04.2019 09:00:00 15,0 9,0 24 13 NNE - 10 -

tt = Temperatura
td = dewpoint
ff = velocità del vento
dd = direzione del vento
ppp = reduced air pressure
vv = visibility
rr = precipitazioni

Stazioni seguenti

WeatherPro
AMSI
MeteoEarth